Home > Weather > Yuma > Past weeks

Flag for U.S.A. Weather for the Past 2 Weeks in Yuma, Arizona, U.S.A.

Now
69 °F

Passing clouds.


Feels Like: 69 °F
Forecast: 56 / 86 °F
Wind: 3 mph from North

Location: Yuma Marine Corps Air Station

Current Time: Feb 10, 2016 at 10:48:44 PM

Latest Report: Feb 10, 2016 at 9:57 PM


Visibility: 10 mi

Pressure: 30.08 "Hg

Humidity: 20%

Dew point: 26 °F

Location of YumaLocation

Historic Weather in Yuma — Graph

°F

Yuma Temperature Yesterday

Maximum temperature yesterday: 84 °F (at 2:57 PM)
Minimum temperature yesterday: 60 °F (at 11:57 PM)
Average temperature yesterday: 72 °F

High & Low Weather Summary for the Past Weeks

 TemperatureHumidityPressure
High87 °F (Feb 10, 3:57 PM)80% (Jan 31, 6:57 AM)30.41 "Hg (Jan 31, 6:57 AM)
Low41 °F (Feb 4, 7:57 AM)9% (Feb 10, 3:57 PM)29.62 "Hg (Jan 31, 6:57 PM)
Average61 °F27%30.13 "Hg
* Reported Jan 26 8:57 PM — Feb 10 8:57 PM, Yuma, Weather by CustomWeather, © 2016

Note: Actual official high and low records may vary slightly from our data, if they occured in-between our weather recording intervals... More about our weather records

Advertising

Yuma Weather History for the Previous 24 Hours

 ConditionsComfort  
Time TempWeatherWind HumidityBarometerVisibility
8:57 PM
Wed, Feb 10
72 °FPassing clouds.7 mph17%30.08 "Hg10 mi
7:57 PM73 °FPassing clouds.7 mph17%30.08 "Hg10 mi
6:57 PM77 °FPassing clouds.7 mph16%30.08 "Hg10 mi
5:57 PM83 °FPartly sunny.6 mph12%30.07 "Hg10 mi
4:57 PM86 °FPartly sunny.8 mph10%30.08 "Hg10 mi
3:57 PM87 °FPartly sunny.9 mph9%30.09 "Hg10 mi
1:57 PM85 °FBroken clouds.6 mph12%30.12 "Hg10 mi
12:57 PM83 °FPartly sunny.10 mph12%29.92 "Hg10 mi
11:57 AM80 °FPartly sunny.12 mph15%30.19 "Hg10 mi
10:57 AM76 °FScattered clouds.7 mph19%29.96 "Hg10 mi
9:57 AM69 °FScattered clouds.8 mph24%30.20 "Hg10 mi
8:57 AM64 °FPassing clouds.10 mph25%30.18 "Hg10 mi
7:57 AM59 °FPassing clouds.10 mph29%30.17 "Hg10 mi
6:57 AM57 °FClear.No wind32%30.16 "Hg10 mi
5:57 AM58 °FClear.8 mph30%30.12 "Hg10 mi
4:57 AM57 °FClear.3 mph31%30.10 "Hg10 mi
3:57 AM64 °FClear.6 mph22%30.12 "Hg10 mi
2:57 AM63 °FClear.7 mph23%30.12 "Hg10 mi
1:57 AM59 °FClear.3 mph29%30.11 "Hg10 mi
12:57 AM63 °FClear.6 mph25%30.09 "Hg10 mi
11:57 PM
Tue, Feb 9
60 °FClear.3 mph30%30.11 "Hg10 mi
10:57 PM72 °FClear.9 mph17%30.10 "Hg10 mi
Weather by CustomWeather, © 2016

See weather overviewHow to use our weather pages